This is the latest recevied weather packets stored in our database for station/object KE0FIN. If no packets are shown the sender has not sent any weather packets the latest 10 day(s).
| Time | Temp. | Humidity | Pressure | Rain* | Wind** | Luminosity | Snow |
|---|---|---|---|---|---|---|---|
| 1777762909 | 22.22° C | 23% | 1069.8 hPa | 0 mm | - | 242 W/m² | - |
| 1777762599 | 22.22° C | 22% | 1069.9 hPa | 0 mm | - | 257 W/m² | - |
| 1777762297 | 22.78° C | 24% | 1069.8 hPa | 0 mm | - | 271 W/m² | - |
| 1777761992 | 22.22° C | 23% | 1069.9 hPa | 0 mm | - | 285 W/m² | - |
| 1777761689 | 21.67° C | 23% | 1069.9 hPa | 0 mm | - | 297 W/m² | - |
| 1777761387 | 21.67° C | 24% | 1069.9 hPa | 0 mm | - | 309 W/m² | - |
| 1777761085 | 22.22° C | 23% | 1070 hPa | 0 mm | - | 324 W/m² | - |
| 1777760782 | 22.22° C | 22% | 1070 hPa | 0 mm | - | 338 W/m² | - |
| 1777760478 | 22.78° C | 23% | 1070.2 hPa | 0 mm | - | 351 W/m² | - |
| 1777760174 | 21.67° C | 22% | 1070.1 hPa | 0 mm | - | 365 W/m² | - |
| 1777759872 | 22.22° C | 23% | 1070 hPa | 0 mm | - | 379 W/m² | - |
| 1777759568 | 22.78° C | 23% | 1070.1 hPa | 0 mm | - | 391 W/m² | - |
| 1777759264 | 21.67° C | 22% | 1070.1 hPa | 0 mm | - | 405 W/m² | - |
| 1777758961 | 22.78° C | 23% | 1070.2 hPa | 0 mm | - | 417 W/m² | - |
| 1777758658 | 21.67° C | 22% | 1070.4 hPa | 0 mm | - | 432 W/m² | - |
| 1777758355 | 21.67° C | 23% | 1070.4 hPa | 0 mm | - | 445 W/m² | - |
| 1777758052 | 21.11° C | 22% | 1070.3 hPa | 0 mm | - | 456 W/m² | - |
| 1777757749 | 21.67° C | 23% | 1070.6 hPa | 0 mm | - | 469 W/m² | - |
| 1777757447 | 21.67° C | 21% | 1070.8 hPa | 0 mm | - | 484 W/m² | - |
| 1777757146 | 22.22° C | 22% | 1070.8 hPa | 0 mm | - | 497 W/m² | - |
| 1777756843 | 21.67° C | 24% | 1070.7 hPa | 0 mm | - | 506 W/m² | - |
| 1777756538 | 21.11° C | 24% | 1070.9 hPa | 0 mm | - | 522 W/m² | - |
| 1777756236 | 21.11° C | 25% | 1071 hPa | 0 mm | - | 532 W/m² | - |
| 1777755933 | 21.67° C | 25% | 1070.9 hPa | 0 mm | - | 540 W/m² | - |
| 1777755630 | 20.56° C | 26% | 1071 hPa | 0 mm | - | 548 W/m² | - |
* Rain latest hour (hover to see other rain measurements)
** Current wind speed in m/s (hover to see current wind gust speed)